FW6635 Weather Reports


time (UTC)temp
C
wind
direction
speed
KPH
gust
KPH
rain 1hr
cm
rain 24hr
cm
rain mn
cm
humidity
%
barometer
mb
20260503224553 21 242 3.2 14.5 0.00 0.03 0.03 43 1018.4
20260503223101 21 205 3.2 9.7 0.00 0.03 0.03 44 1018.3
20260503221552 22 279 4.8 14.5 0.00 0.03 0.03 43 1018.4
20260503220057 22 277 6.4 14.5 0.00 0.03 0.03 42 1018.2
20260503214555 22 313 3.2 11.3 0.00 0.03 0.03 43 1018.3
20260503213053 21 261 4.8 16.1 0.00 0.03 0.03 42 1018.2
20260503211553 22 223 1.6 8.0 0.00 0.03 0.03 41 1018.2
20260503210051 22 294 3.2 14.5 0.00 0.03 0.03 42 1018.4
20260503204550 21 0 6.4 19.3 0.00 0.03 0.03 40 1018.3
20260503203052 21 19 1.6 11.3 0.00 0.03 0.03 40 1018.4
20260503201552 22 233 6.4 17.7 0.00 0.03 0.03 39 1018.6
20260503200052 22 284 6.4 17.7 0.00 0.03 0.03 40 1018.9
20260503194557 22 290 3.2 20.9 0.00 0.18 0.03 40 1019.1
20260503193050 21 153 4.8 16.1 0.00 0.18 0.03 44 1019.3
20260503191600 21 205 8.0 24.1 0.00 0.18 0.03 42 1019.7
20260503190050 21 303 4.8 14.5 0.00 0.18 0.03 44 1020.0
20260503184552 22 200 4.8 14.5 0.00 0.18 0.03 47 1020.2
20260503183055 21 271 9.7 17.7 0.00 0.18 0.03 45 1020.5
20260503181604 21 285 9.7 17.7 0.00 0.18 0.03 45 1020.6
20260503180050 21 268 6.4 16.1 0.00 0.18 0.03 49 1020.6
20260503174553 21 232 9.7 19.3 0.00 0.20 0.03 48 1020.7
20260503173054 20 273 8.0 16.1 0.00 0.20 0.03 51 1020.7
20260503171553 20 286 4.8 16.1 0.00 0.20 0.03 51 1020.9
20260503170110 19 327 1.6 9.7 0.00 0.20 0.03 54 1021.1
20260503120105 8 0 0.0 1.6 0.03 1.09 0.03 97 1020.7
20260503081553 7 0 0.0 0.0 0.00 1.88 0.00 96 1018.9
20260503071553 8 0 0.0 0.0 0.00 2.11 0.00 96 1018.3
20260503054550 10 0 0.0 0.0 0.00 2.51 0.00 96 1017.8
20260503053051 10 0 0.0 0.0 0.00 2.51 0.00 96 1017.9
20260503051548 10 0 0.0 0.0 0.00 2.51 0.00 96 1018.1
20260503050050 10 0 0.0 0.0 0.00 2.51 0.00 96 1018.0
20260503044635 10 0 0.0 0.0 0.00 2.51 0.00 96 1018.0
20260503043053 10 0 0.0 3.2 0.00 2.51 0.00 96 1017.5
20260503041609 10 347 1.6 3.2 0.00 2.51 0.00 96 1017.6
20260503040053 10 0 0.0 0.0 0.00 2.51 0.00 96 1017.8
20260503034547 10 0 0.0 3.2 0.00 2.51 2.51 96 1017.9
20260503033101 10 0 0.0 4.8 0.00 2.51 2.51 96 1017.8
20260503031552 11 0 0.0 0.0 0.00 2.51 2.51 96 1017.2
20260503030045 11 0 0.0 0.0 0.00 2.51 2.51 96 1017.4
20260503024559 10 0 0.0 0.0 0.00 2.51 2.51 96 1016.9
20260503023056 10 0 0.0 0.0 0.00 2.51 2.51 96 1016.7
20260503021554 11 0 0.0 0.0 0.00 2.51 2.51 96 1016.3
20260503020056 10 0 0.0 0.0 0.00 2.51 2.51 96 1016.2
20260503014553 10 0 0.0 0.0 0.00 2.51 2.51 96 1016.0
20260503013051 11 0 0.0 0.0 0.00 2.51 2.51 96 1015.8
20260503011553 11 0 0.0 0.0 0.00 2.51 2.51 96 1015.6
20260503010058 10 0 0.0 0.0 0.00 2.51 2.51 95 1015.5
20260503004551 10 0 0.0 0.0 0.00 2.51 2.51 95 1015.2
20260503003055 11 0 0.0 0.0 0.00 2.51 2.51 94 1015.0
20260503001613 11 0 0.0 0.0 0.00 2.51 2.51 94 1015.1
20260503000113 12 0 0.0 0.0 0.00 2.51 2.51 92 1014.8
20260502234558 12 89 0.0 4.8 0.00 2.51 2.51 88 1014.5
20260502233050 13 89 0.0 6.4 0.00 2.51 2.51 88 1014.1
20260502231553 13 58 6.4 14.5 0.00 2.51 2.51 87 1014.0
20260502230049 13 86 1.6 8.0 0.00 2.51 2.51 88 1014.1